| time (UTC) | temp C | wind direction | speed KPH | gust KPH | rain 1hr cm | rain 24hr cm | rain mn cm | humidity % | barometer mb |
| 20260506094614 | 11 | 273 | 3.2 | 14.5 | 0.00 | 0.00 | 0.00 | 59 | 1010.1 |
| 20260506094110 | 12 | 309 | 3.2 | 4.8 | 0.00 | 0.00 | 0.00 | 60 | 1010.1 |
| 20260506093606 | 12 | 233 | 3.2 | 12.9 | 0.00 | 0.00 | 0.00 | 60 | 1010.1 |
| 20260506093102 | 11 | 47 | 12.9 | 17.7 | 0.00 | 0.00 | 0.00 | 60 | 1010.0 |
| 20260506092558 | 11 | 9 | 4.8 | 6.4 | 0.00 | 0.00 | 0.00 | 60 | 1010.1 |
| 20260506092054 | 11 | 157 | 3.2 | 9.7 | 0.00 | 0.00 | 0.00 | 59 | 1009.8 |
| 20260506091550 | 11 | 175 | 3.2 | 14.5 | 0.00 | 0.00 | 0.00 | 61 | 1009.8 |
| 20260506091046 | 11 | 338 | 9.7 | 12.9 | 0.00 | 0.00 | 0.00 | 60 | 1009.8 |
| 20260506090542 | 11 | 137 | 8.0 | 14.5 | 0.00 | 0.00 | 0.00 | 62 | 1009.9 |
| 20260506090038 | 11 | 21 | 8.0 | 11.3 | 0.00 | 0.00 | 0.00 | 62 | 1009.8 |
| 20260506085534 | 11 | 295 | 1.6 | 16.1 | 0.00 | 0.00 | 0.00 | 63 | 1009.9 |
| 20260506085030 | 11 | 64 | 1.6 | 9.7 | 0.00 | 0.00 | 0.00 | 65 | 1009.6 |
| 20260506084526 | 11 | 314 | 9.7 | 16.1 | 0.00 | 0.00 | 0.00 | 64 | 1009.7 |
| 20260506084022 | 11 | 19 | 12.9 | 14.5 | 0.00 | 0.00 | 0.00 | 65 | 1010.0 |
| 20260506083518 | 10 | 20 | 3.2 | 12.9 | 0.00 | 0.00 | 0.00 | 66 | 1009.9 |
| 20260506083014 | 10 | 67 | 8.0 | 12.9 | 0.00 | 0.00 | 0.00 | 67 | 1009.6 |
| 20260506082510 | 10 | 32 | 9.7 | 14.5 | 0.00 | 0.00 | 0.00 | 68 | 1009.7 |
| 20260506082006 | 10 | 20 | 6.4 | 9.7 | 0.00 | 0.00 | 0.00 | 67 | 1009.8 |
| 20260506081502 | 10 | 288 | 3.2 | 16.1 | 0.00 | 0.00 | 0.00 | 67 | 1009.7 |
| 20260506080958 | 11 | 258 | 1.6 | 6.4 | 0.00 | 0.00 | 0.00 | 68 | 1009.7 |
| 20260506080454 | 10 | 289 | 3.2 | 9.7 | 0.00 | 0.00 | 0.00 | 69 | 1009.7 |
| 20260506073430 | 10 | 41 | 8.0 | 17.7 | 0.00 | 0.00 | 0.00 | 70 | 1009.9 |
| 20260506072926 | 10 | 31 | 9.7 | 12.9 | 0.00 | 0.00 | 0.00 | 70 | 1009.5 |
| 20260506072422 | 10 | 341 | 6.4 | 17.7 | 0.00 | 0.00 | 0.00 | 71 | 1009.9 |
| 20260506071918 | 10 | 23 | 9.7 | 12.9 | 0.00 | 0.00 | 0.00 | 72 | 1009.8 |
| 20260506071414 | 10 | 304 | 3.2 | 14.5 | 0.00 | 0.00 | 0.00 | 72 | 1009.6 |
| 20260506070910 | 9 | 331 | 8.0 | 20.9 | 0.00 | 0.00 | 0.00 | 72 | 1009.7 |
| 20260506070406 | 10 | 25 | 6.4 | 9.7 | 0.00 | 0.00 | 0.00 | 72 | 1009.6 |
| 20260506062334 | 8 | 307 | 4.8 | 17.7 | 0.00 | 0.00 | 0.00 | 78 | 1009.6 |
| 20260506061830 | 8 | 352 | 6.4 | 16.1 | 0.00 | 0.00 | 0.00 | 78 | 1009.5 |
| 20260506061326 | 8 | 321 | 3.2 | 11.3 | 0.00 | 0.00 | 0.00 | 79 | 1009.6 |
| 20260506060822 | 8 | 306 | 3.2 | 4.8 | 0.00 | 0.00 | 0.00 | 79 | 1009.5 |
| 20260506060318 | 7 | 24 | 4.8 | 4.8 | 0.00 | 0.00 | 0.00 | 79 | 1009.3 |
| 20260506051238 | 8 | 24 | 1.6 | 9.7 | 0.00 | 0.00 | 0.00 | 77 | 1009.7 |
| 20260506050734 | 8 | 13 | 3.2 | 11.3 | 0.00 | 0.00 | 0.00 | 77 | 1009.3 |
| 20260506050230 | 8 | 284 | 3.2 | 4.8 | 0.00 | 0.00 | 0.00 | 77 | 1009.4 |
| 20260506044718 | 8 | 252 | 1.6 | 4.8 | 0.00 | 0.00 | 0.00 | 78 | 1009.4 |
| 20260506044214 | 8 | 249 | 1.6 | 12.9 | 0.00 | 0.00 | 0.00 | 78 | 1009.4 |
| 20260506043709 | 8 | 343 | 4.8 | 6.4 | 0.00 | 0.00 | 0.00 | 78 | 1009.5 |
| 20260506043205 | 8 | 5 | 1.6 | 4.8 | 0.00 | 0.00 | 0.00 | 78 | 1009.4 |
| 20260506042701 | 8 | 346 | 1.6 | 1.6 | 0.00 | 0.00 | 0.00 | 78 | 1009.0 |
| 20260506042158 | 8 | 340 | 4.8 | 6.4 | 0.00 | 0.00 | 0.00 | 78 | 1009.3 |
| 20260506041653 | 8 | 51 | 3.2 | 4.8 | 0.00 | 0.00 | 0.00 | 79 | 1009.4 |
| 20260506041149 | 8 | 57 | 3.2 | 6.4 | 0.00 | 0.00 | 0.00 | 79 | 1009.1 |
| 20260506040645 | 8 | 333 | 3.2 | 14.5 | 0.00 | 0.00 | 0.00 | 78 | 1009.3 |
| 20260506040141 | 8 | 142 | 1.6 | 6.4 | 0.00 | 0.00 | 0.00 | 79 | 1009.2 |
| 20260506035637 | 8 | 348 | 3.2 | 6.4 | 0.00 | 0.00 | 0.00 | 78 | 1009.4 |
| 20260506035134 | 8 | 212 | 3.2 | 11.3 | 0.00 | 0.00 | 0.00 | 78 | 1009.3 |
| 20260506034630 | 8 | 289 | 6.4 | 9.7 | 0.00 | 0.00 | 0.00 | 78 | 1009.3 |
| 20260506034126 | 8 | 271 | 3.2 | 3.2 | 0.00 | 0.00 | 0.00 | 78 | 1009.1 |
| 20260506033622 | 8 | 88 | 0.0 | 1.6 | 0.00 | 0.00 | 0.00 | 78 | 1009.3 |
| 20260506033118 | 8 | 329 | 1.6 | 3.2 | 0.00 | 0.00 | 0.00 | 77 | 1009.5 |
| 20260506032613 | 8 | 325 | 3.2 | 3.2 | 0.00 | 0.00 | 0.00 | 77 | 1009.3 |
| 20260506032109 | 8 | 281 | 3.2 | 6.4 | 0.00 | 0.00 | 0.00 | 76 | 1009.3 |
| 20260506031605 | 9 | 268 | 0.0 | 6.4 | 0.00 | 0.00 | 0.00 | 76 | 1009.3 |
| 20260506031101 | 9 | 28 | 1.6 | 4.8 | 0.00 | 0.00 | 0.00 | 76 | 1009.2 |
| 20260506030557 | 9 | 278 | 1.6 | 3.2 | 0.00 | 0.00 | 0.00 | 75 | 1009.4 |
| 20260506030053 | 9 | 33 | 3.2 | 11.3 | 0.00 | 0.00 | 0.00 | 74 | 1009.2 |
| 20260506025549 | 9 | 0 | 8.0 | 11.3 | 0.00 | 0.00 | 0.00 | 74 | 1009.2 |
| 20260506025046 | 9 | 22 | 6.4 | 12.9 | 0.00 | 0.00 | 0.00 | 74 | 1009.4 |
| 20260506024542 | 9 | 324 | 3.2 | 14.5 | 0.00 | 0.00 | 0.00 | 74 | 1009.2 |
| 20260506024038 | 9 | 351 | 8.0 | 12.9 | 0.00 | 0.00 | 0.00 | 74 | 1009.4 |
| 20260506023534 | 9 | 47 | 6.4 | 12.9 | 0.00 | 0.00 | 0.00 | 74 | 1009.5 |
| 20260506023030 | 9 | 18 | 9.7 | 17.7 | 0.00 | 0.00 | 0.00 | 74 | 1009.5 |
| 20260506022525 | 9 | 20 | 1.6 | 9.7 | 0.00 | 0.00 | 0.00 | 75 | 1009.4 |
| 20260506022021 | 9 | 3 | 1.6 | 11.3 | 0.00 | 0.00 | 0.00 | 76 | 1009.3 |
| 20260506021517 | 9 | 19 | 6.4 | 11.3 | 0.00 | 0.00 | 0.00 | 76 | 1009.5 |
| 20260506021013 | 9 | 29 | 4.8 | 14.5 | 0.00 | 0.00 | 0.00 | 76 | 1009.6 |
| 20260506020509 | 9 | 348 | 1.6 | 9.7 | 0.00 | 0.00 | 0.00 | 77 | 1009.5 |
| 20260506020005 | 10 | 308 | 1.6 | 12.9 | 0.00 | 0.00 | 0.00 | 77 | 1009.5 |
| 20260506015501 | 10 | 57 | 1.6 | 9.7 | 0.00 | 0.00 | 0.00 | 77 | 1009.7 |
| 20260506014958 | 10 | 13 | 4.8 | 11.3 | 0.00 | 0.00 | 0.00 | 77 | 1009.7 |
| 20260506014454 | 9 | 77 | 3.2 | 6.4 | 0.00 | 0.00 | 0.00 | 77 | 1009.4 |
| 20260506013950 | 10 | 328 | 4.8 | 9.7 | 0.00 | 0.00 | 0.00 | 78 | 1009.9 |
| 20260506013446 | 10 | 314 | 1.6 | 4.8 | 0.00 | 0.00 | 0.00 | 79 | 1009.8 |
| 20260506012942 | 10 | 292 | 3.2 | 11.3 | 0.00 | 0.00 | 0.00 | 79 | 1009.8 |
| 20260506012438 | 10 | 55 | 1.6 | 4.8 | 0.00 | 0.00 | 0.00 | 79 | 1009.8 |
| 20260506011934 | 10 | 12 | 1.6 | 4.8 | 0.00 | 0.00 | 0.00 | 78 | 1009.9 |
| 20260506011430 | 10 | 334 | 6.4 | 6.4 | 0.00 | 0.00 | 0.00 | 78 | 1009.8 |
| 20260506010926 | 10 | 20 | 6.4 | 6.4 | 0.00 | 0.00 | 0.00 | 78 | 1009.7 |
| 20260506010421 | 10 | 19 | 3.2 | 14.5 | 0.00 | 0.00 | 0.00 | 78 | 1009.7 |
| 20260506005917 | 10 | 19 | 6.4 | 11.3 | 0.00 | 0.00 | 0.00 | 78 | 1009.5 |
| 20260506005413 | 10 | 336 | 1.6 | 9.7 | 0.00 | 0.00 | 0.00 | 78 | 1009.4 |
| 20260506004910 | 10 | 34 | 6.4 | 9.7 | 0.00 | 0.00 | 0.00 | 78 | 1009.7 |
| 20260506004406 | 10 | 8 | 3.2 | 4.8 | 0.00 | 0.00 | 0.00 | 78 | 1009.6 |
| 20260506003902 | 10 | 29 | 6.4 | 11.3 | 0.00 | 0.00 | 0.00 | 77 | 1009.6 |
| 20260506003358 | 10 | 43 | 3.2 | 4.8 | 0.00 | 0.00 | 0.00 | 77 | 1009.6 |
| 20260506002854 | 10 | 45 | 11.3 | 22.5 | 0.00 | 0.00 | 0.00 | 77 | 1009.7 |
| 20260506002350 | 10 | 36 | 9.7 | 14.5 | 0.00 | 0.00 | 0.00 | 77 | 1009.7 |
| 20260506001846 | 10 | 29 | 14.5 | 16.1 | 0.00 | 0.00 | 0.00 | 76 | 1009.8 |
| 20260506001342 | 10 | 56 | 3.2 | 14.5 | 0.00 | 0.00 | 0.00 | 76 | 1009.8 |
| 20260506000838 | 10 | 328 | 3.2 | 9.7 | 0.00 | 0.00 | 0.00 | 76 | 1009.9 |
| 20260506000334 | 10 | 346 | 9.7 | 17.7 | 0.00 | 0.00 | 0.00 | 77 | 1009.8 |
| 20260505235830 | 10 | 45 | 1.6 | 4.8 | 0.00 | 0.00 | 0.00 | 77 | 1009.9 |
| 20260505235325 | 10 | 342 | 9.7 | 12.9 | 0.00 | 0.00 | 0.00 | 77 | 1009.7 |
| 20260505234822 | 10 | 48 | 6.4 | 9.7 | 0.00 | 0.00 | 0.00 | 77 | 1009.7 |
| 20260505234318 | 10 | 352 | 3.2 | 14.5 | 0.00 | 0.00 | 0.00 | 77 | 1009.8 |
| 20260505233814 | 10 | 53 | 8.0 | 11.3 | 0.00 | 0.00 | 0.00 | 77 | 1009.8 |
| 20260505233310 | 10 | 358 | 3.2 | 12.9 | 0.00 | 0.00 | 0.00 | 76 | 1009.9 |
| 20260505232806 | 10 | 272 | 1.6 | 11.3 | 0.00 | 0.00 | 0.00 | 76 | 1009.7 |
| 20260505232305 | 10 | 99 | 0.0 | 6.4 | 0.00 | 0.00 | 0.00 | 76 | 1009.8 |
| 20260505231758 | 10 | 73 | 1.6 | 9.7 | 0.00 | 0.00 | 0.00 | 76 | 1009.9 |
| 20260505231254 | 10 | 55 | 6.4 | 17.7 | 0.00 | 0.00 | 0.00 | 75 | 1010.0 |
| 20260505230750 | 10 | 32 | 4.8 | 11.3 | 0.00 | 0.00 | 0.00 | 75 | 1009.7 |
| 20260505230246 | 10 | 17 | 6.4 | 12.9 | 0.00 | 0.00 | 0.00 | 75 | 1010.0 |
| 20260505225741 | 10 | 304 | 1.6 | 12.9 | 0.00 | 0.00 | 0.03 | 75 | 1009.6 |
| 20260505225237 | 11 | 48 | 3.2 | 12.9 | 0.00 | 0.00 | 0.03 | 75 | 1010.1 |
| 20260505224734 | 11 | 78 | 9.7 | 14.5 | 0.00 | 0.00 | 0.03 | 75 | 1009.7 |
| 20260505224230 | 11 | 90 | 3.2 | 11.3 | 0.00 | 0.00 | 0.03 | 75 | 1009.9 |
| 20260505223726 | 11 | 4 | 8.0 | 20.9 | 0.00 | 0.00 | 0.03 | 75 | 1009.7 |
| 20260505223222 | 11 | 26 | 3.2 | 9.7 | 0.00 | 0.00 | 0.03 | 75 | 1009.7 |
| 20260505222718 | 10 | 20 | 12.9 | 17.7 | 0.00 | 0.00 | 0.03 | 76 | 1009.8 |
| 20260505222214 | 11 | 26 | 4.8 | 22.5 | 0.00 | 0.00 | 0.03 | 80 | 1010.1 |
| 20260505221710 | 11 | 13 | 6.4 | 9.7 | 0.03 | 0.00 | 0.03 | 82 | 1009.8 |
| 20260505221206 | 11 | 355 | 4.8 | 12.9 | 0.03 | 0.00 | 0.03 | 82 | 1009.7 |
| 20260505220702 | 11 | 36 | 6.4 | 12.9 | 0.03 | 0.00 | 0.03 | 82 | 1009.8 |
| 20260505220158 | 11 | 27 | 4.8 | 9.7 | 0.03 | 0.00 | 0.03 | 82 | 1009.7 |
| 20260505215654 | 11 | 62 | 4.8 | 6.4 | 0.03 | 0.00 | 0.03 | 83 | 1009.8 |
| 20260505215149 | 11 | 18 | 3.2 | 6.4 | 0.03 | 0.00 | 0.03 | 83 | 1009.8 |
| 20260505214646 | 11 | 356 | 6.4 | 12.9 | 0.03 | 0.00 | 0.03 | 83 | 1009.7 |
| 20260505214142 | 11 | 50 | 4.8 | 9.7 | 0.03 | 0.00 | 0.03 | 83 | 1009.5 |
| 20260505213638 | 11 | 55 | 9.7 | 12.9 | 0.03 | 0.00 | 0.03 | 83 | 1009.6 |
| 20260505213133 | 11 | 50 | 3.2 | 4.8 | 0.03 | 0.00 | 0.03 | 82 | 1009.5 |
| 20260505212629 | 11 | 4 | 16.1 | 20.9 | 0.03 | 0.00 | 0.03 | 82 | 1009.7 |
| 20260505212125 | 11 | 354 | 6.4 | 22.5 | 0.00 | 0.00 | 0.00 | 81 | 1009.6 |
| 20260505211621 | 11 | 29 | 9.7 | 14.5 | 0.00 | 0.00 | 0.00 | 81 | 1009.9 |
| 20260505211117 | 11 | 62 | 4.8 | 11.3 | 0.00 | 0.00 | 0.00 | 80 | 1009.6 |
| 20260505210613 | 11 | 86 | 8.0 | 16.1 | 0.00 | 0.00 | 0.00 | 80 | 1009.7 |
| 20260505210109 | 12 | 52 | 6.4 | 16.1 | 0.00 | 0.00 | 0.00 | 78 | 1009.6 |
| 20260505205605 | 12 | 21 | 11.3 | 20.9 | 0.00 | 0.00 | 0.00 | 74 | 1009.6 |
| 20260505205102 | 12 | 54 | 9.7 | 12.9 | 0.00 | 0.00 | 0.00 | 71 | 1009.6 |
| 20260505204558 | 12 | 43 | 17.7 | 25.7 | 0.00 | 0.00 | 0.00 | 68 | 1009.5 |
| 20260505204054 | 12 | 346 | 3.2 | 9.7 | 0.00 | 0.00 | 0.00 | 67 | 1009.4 |
| 20260505203549 | 12 | 41 | 3.2 | 4.8 | 0.00 | 0.00 | 0.00 | 68 | 1009.3 |
| 20260505203045 | 12 | 58 | 4.8 | 9.7 | 0.00 | 0.00 | 0.00 | 69 | 1009.2 |
| 20260505202541 | 12 | 32 | 6.4 | 11.3 | 0.00 | 0.00 | 0.00 | 71 | 1009.4 |
| 20260505202037 | 12 | 56 | 4.8 | 11.3 | 0.00 | 0.00 | 0.00 | 71 | 1009.3 |
| 20260505201533 | 12 | 51 | 3.2 | 6.4 | 0.00 | 0.00 | 0.00 | 70 | 1009.0 |
| 20260505201029 | 12 | 78 | 1.6 | 6.4 | 0.00 | 0.00 | 0.00 | 70 | 1009.0 |
| 20260505200525 | 12 | 47 | 4.8 | 6.4 | 0.00 | 0.00 | 0.00 | 70 | 1009.1 |
| 20260505200021 | 12 | 45 | 4.8 | 4.8 | 0.00 | 0.00 | 0.00 | 70 | 1009.1 |
| 20260505195517 | 12 | 106 | 3.2 | 6.4 | 0.00 | 0.00 | 0.00 | 70 | 1008.8 |
| 20260505195014 | 12 | 52 | 1.6 | 3.2 | 0.00 | 0.00 | 0.00 | 70 | 1008.5 |
| 20260505194510 | 12 | 89 | 4.8 | 9.7 | 0.00 | 0.00 | 0.00 | 69 | 1008.6 |
| 20260505194005 | 12 | 69 | 1.6 | 6.4 | 0.00 | 0.00 | 0.00 | 69 | 1008.7 |
| 20260505193501 | 13 | 51 | 6.4 | 9.7 | 0.00 | 0.00 | 0.00 | 68 | 1008.6 |
| 20260505192957 | 13 | 67 | 3.2 | 6.4 | 0.00 | 0.00 | 0.00 | 68 | 1008.7 |
| 20260505192453 | 13 | 32 | 3.2 | 6.4 | 0.00 | 0.00 | 0.00 | 69 | 1008.6 |
| 20260505191949 | 13 | 344 | 1.6 | 6.4 | 0.00 | 0.00 | 0.00 | 68 | 1008.4 |
| 20260505191445 | 13 | 16 | 6.4 | 14.5 | 0.00 | 0.00 | 0.00 | 67 | 1008.4 |
| 20260505190941 | 13 | 7 | 3.2 | 11.3 | 0.00 | 0.00 | 0.00 | 65 | 1008.4 |
| 20260505190437 | 13 | 46 | 6.4 | 6.4 | 0.00 | 0.00 | 0.00 | 64 | 1008.3 |
| 20260505185933 | 13 | 33 | 6.4 | 6.4 | 0.00 | 0.00 | 0.00 | 64 | 1008.4 |
| 20260505185429 | 14 | 17 | 6.4 | 6.4 | 0.00 | 0.00 | 0.00 | 63 | 1008.1 |
| 20260505184926 | 14 | 50 | 4.8 | 6.4 | 0.00 | 0.00 | 0.00 | 62 | 1008.1 |
| 20260505184422 | 14 | 82 | 3.2 | 4.8 | 0.00 | 0.00 | 0.00 | 62 | 1008.1 |
| 20260505183917 | 14 | 104 | 0.0 | 1.6 | 0.00 | 0.00 | 0.00 | 62 | 1007.8 |
| 20260505183413 | 14 | 127 | 1.6 | 1.6 | 0.00 | 0.00 | 0.00 | 62 | 1007.9 |
| 20260505182909 | 14 | 72 | 1.6 | 3.2 | 0.00 | 0.00 | 0.00 | 62 | 1007.9 |
| 20260505182405 | 14 | 82 | 3.2 | 6.4 | 0.00 | 0.00 | 0.00 | 62 | 1008.0 |
| 20260505181901 | 14 | 90 | 3.2 | 4.8 | 0.00 | 0.00 | 0.00 | 62 | 1008.0 |
| 20260505181357 | 14 | 55 | 3.2 | 6.4 | 0.00 | 0.00 | 0.00 | 62 | 1008.0 |
| 20260505180853 | 14 | 36 | 1.6 | 9.7 | 0.00 | 0.00 | 0.00 | 62 | 1007.8 |
| 20260505180349 | 14 | 91 | 4.8 | 6.4 | 0.00 | 0.00 | 0.00 | 61 | 1008.0 |
| 20260505175845 | 14 | 62 | 3.2 | 9.7 | 0.00 | 0.00 | 0.00 | 61 | 1007.9 |
| 20260505175341 | 14 | 134 | 3.2 | 6.4 | 0.00 | 0.00 | 0.00 | 61 | 1008.1 |
| 20260505174838 | 14 | 55 | 3.2 | 4.8 | 0.00 | 0.00 | 0.00 | 61 | 1008.0 |
| 20260505174334 | 14 | 76 | 1.6 | 9.7 | 0.00 | 0.00 | 0.00 | 60 | 1008.2 |
| 20260505173830 | 15 | 78 | 1.6 | 3.2 | 0.00 | 0.00 | 0.00 | 59 | 1008.0 |
| 20260505173326 | 15 | 134 | 3.2 | 4.8 | 0.00 | 0.00 | 0.00 | 59 | 1008.1 |
| 20260505172822 | 15 | 111 | 1.6 | 6.4 | 0.00 | 0.00 | 0.00 | 59 | 1008.0 |
| 20260505172318 | 15 | 86 | 3.2 | 4.8 | 0.00 | 0.00 | 0.00 | 59 | 1007.9 |
| 20260505171814 | 15 | 111 | 3.2 | 6.4 | 0.00 | 0.00 | 0.00 | 59 | 1008.0 |
| 20260505171310 | 15 | 136 | 3.2 | 11.3 | 0.00 | 0.00 | 0.00 | 59 | 1008.2 |
| 20260505170806 | 15 | 124 | 6.4 | 11.3 | 0.00 | 0.00 | 0.00 | 58 | 1008.2 |
| 20260505170302 | 15 | 91 | 0.0 | 11.3 | 0.00 | 0.00 | 0.00 | 57 | 1008.1 |
| 20260505165758 | 15 | 89 | 6.4 | 9.7 | 0.00 | 0.00 | 0.00 | 56 | 1008.2 |
| 20260505165254 | 15 | 48 | 4.8 | 6.4 | 0.00 | 0.00 | 0.00 | 56 | 1008.1 |
| 20260505164749 | 15 | 48 | 6.4 | 9.7 | 0.00 | 0.00 | 0.00 | 55 | 1008.0 |
| 20260505164245 | 15 | 64 | 3.2 | 4.8 | 0.00 | 0.00 | 0.00 | 56 | 1008.0 |
| 20260505163741 | 15 | 99 | 6.4 | 9.7 | 0.00 | 0.00 | 0.00 | 55 | 1008.1 |
| 20260505163237 | 15 | 114 | 4.8 | 9.7 | 0.00 | 0.00 | 0.00 | 55 | 1008.2 |
| 20260505162733 | 15 | 100 | 4.8 | 12.9 | 0.00 | 0.00 | 0.00 | 54 | 1008.2 |
| 20260505162229 | 15 | 131 | 6.4 | 9.7 | 0.00 | 0.00 | 0.00 | 54 | 1008.2 |
| 20260505161725 | 15 | 81 | 8.0 | 11.3 | 0.00 | 0.00 | 0.00 | 54 | 1007.9 |
| 20260505161221 | 15 | 33 | 8.0 | 12.9 | 0.00 | 0.00 | 0.00 | 54 | 1008.1 |
| 20260505160717 | 15 | 92 | 6.4 | 11.3 | 0.00 | 0.00 | 0.00 | 53 | 1008.1 |
| 20260505160213 | 15 | 82 | 9.7 | 11.3 | 0.00 | 0.00 | 0.00 | 53 | 1008.3 |
| 20260505153148 | 16 | 49 | 4.8 | 6.4 | 0.00 | 0.00 | 0.00 | 52 | 1007.9 |
| 20260505152644 | 16 | 67 | 6.4 | 11.3 | 0.00 | 0.00 | 0.00 | 51 | 1008.0 |
| 20260505152140 | 16 | 67 | 3.2 | 6.4 | 0.00 | 0.00 | 0.00 | 51 | 1008.2 |
| 20260505151636 | 16 | 52 | 0.0 | 4.8 | 0.00 | 0.00 | 0.00 | 51 | 1008.0 |
| 20260505151132 | 16 | 292 | 0.0 | 1.6 | 0.00 | 0.00 | 0.00 | 51 | 1007.9 |
| 20260505150628 | 16 | 46 | 8.0 | 9.7 | 0.00 | 0.00 | 0.00 | 50 | 1008.1 |
| 20260505150124 | 16 | 45 | 4.8 | 4.8 | 0.00 | 0.00 | 0.00 | 52 | 1008.2 |
| 20260505140541 | 16 | 77 | 4.8 | 14.5 | 0.00 | 0.00 | 0.00 | 51 | 1008.3 |
| 20260505124940 | 16 | 45 | 8.0 | 11.3 | 0.00 | 0.00 | 0.00 | 47 | 1008.6 |
| 20260505124436 | 16 | 283 | 4.8 | 9.7 | 0.00 | 0.00 | 0.00 | 51 | 1008.9 |
| 20260505123932 | 17 | 71 | 1.6 | 6.4 | 0.00 | 0.00 | 0.00 | 49 | 1008.7 |
| 20260505123428 | 16 | 116 | 3.2 | 9.7 | 0.00 | 0.00 | 0.00 | 47 | 1008.3 |
| 20260505122924 | 16 | 335 | 6.4 | 9.7 | 0.00 | 0.00 | 0.00 | 48 | 1008.7 |
| 20260505122420 | 16 | 21 | 6.4 | 14.5 | 0.00 | 0.00 | 0.00 | 49 | 1008.7 |
| 20260505121916 | 16 | 9 | 3.2 | 4.8 | 0.00 | 0.00 | 0.00 | 51 | 1008.7 |
| 20260505121412 | 16 | 30 | 14.5 | 16.1 | 0.00 | 0.00 | 0.00 | 51 | 1008.8 |
| 20260505120908 | 16 | 144 | 0.0 | 6.4 | 0.00 | 0.00 | 0.00 | 52 | 1008.7 |
| 20260505120404 | 16 | 70 | 4.8 | 11.3 | 0.00 | 0.00 | 0.00 | 54 | 1008.8 |
| 20260505115900 | 16 | 37 | 6.4 | 9.7 | 0.00 | 0.00 | 0.00 | 52 | 1008.8 |
| 20260505115356 | 16 | 22 | 8.0 | 12.9 | 0.00 | 0.00 | 0.00 | 49 | 1008.7 |
| 20260505114852 | 16 | 25 | 1.6 | 6.4 | 0.00 | 0.00 | 0.00 | 51 | 1008.8 |
| 20260505114348 | 15 | 34 | 3.2 | 6.4 | 0.00 | 0.00 | 0.00 | 56 | 1008.8 |
| 20260505113844 | 15 | 19 | 11.3 | 12.9 | 0.00 | 0.00 | 0.00 | 57 | 1008.9 |
| 20260505113340 | 15 | 65 | 3.2 | 6.4 | 0.00 | 0.00 | 0.00 | 56 | 1009.0 |
| 20260505112836 | 15 | 6 | 8.0 | 14.5 | 0.00 | 0.00 | 0.00 | 57 | 1008.8 |
| 20260505112332 | 15 | 49 | 8.0 | 16.1 | 0.00 | 0.00 | 0.00 | 57 | 1009.1 |
| 20260505111828 | 15 | 13 | 9.7 | 20.9 | 0.00 | 0.00 | 0.00 | 59 | 1009.2 |
| 20260505111324 | 15 | 65 | 3.2 | 9.7 | 0.00 | 0.00 | 0.00 | 61 | 1008.8 |
| 20260505110820 | 15 | 353 | 9.7 | 11.3 | 0.00 | 0.00 | 0.00 | 58 | 1009.1 |
| 20260505110316 | 15 | 25 | 11.3 | 16.1 | 0.00 | 0.00 | 0.00 | 60 | 1009.0 |
| 20260505101740 | 14 | 61 | 1.6 | 9.7 | 0.00 | 0.00 | 0.00 | 63 | 1009.4 |
| 20260505101236 | 14 | 0 | 4.8 | 14.5 | 0.00 | 0.00 | 0.00 | 63 | 1009.7 |
| 20260505100732 | 14 | 287 | 3.2 | 16.1 | 0.00 | 0.00 | 0.00 | 64 | 1009.4 |
| 20260505100228 | 14 | 16 | 1.6 | 11.3 | 0.00 | 0.00 | 0.00 | 63 | 1009.4 |
| 20260505095724 | 13 | 33 | 4.8 | 12.9 | 0.00 | 0.00 | 0.00 | 64 | 1009.7 |
| 20260505095220 | 13 | 36 | 11.3 | 12.9 | 0.00 | 0.00 | 0.00 | 65 | 1009.8 |